Location: Aytr�
(46.1357°N, 1.1145°W)
Time: 11:50:28
(UTC+00:00)

Nauka - Pass Details

Date: 18 September 2021
Orbit: 418 x 423 km, 51.6° (Epoch: 18 October)

Event Time Altitude Azimuth Distance (km) Brightness Sun altitude
Rises 20:17:50 0° 253° (WSW) 2,358 ? -22.1°
Reaches altitude 10° 20:19:57 10° 258° (WSW) 1,498 ? -22.4°
Enters shadow 20:22:48 51° 300° (WNW) 538 ? -22.9°
